Wind_Speed
5 2 8 8 8 8 7 5 7 2 6 3 3 4 2 6 8 4 8 7 5 8 14 24 31 35 33 33 35 34 31 27 24 22 19 17 18 14 13 18 19 16 11 10
5 7 13 9 6 4 5 6 4 8 8 4 5 5 6 9 8 9 5 9 8 3 7 17 29 33 34 35 36 36 35 29 26 23 17 13 17 14 22 23 20 15 11 6
8 11 4 8 10 7 5 5 7 5 9 5 11 5 6 6 4 10 11 12 8 8 8 11 21 29 30 31 36 35 39 32 30 25 19 15 12 12 24 28 25 18 15 11
7 12 11 12 7 8 6 11 9 16 10 6 10 4 6 4 5 10 16 17 13 13 9 7 21 25 29 33 36 36 35 35 31 30 26 23 14 14 23 34 27 24 20 18
11 6 6 7 11 8 9 8 15 16 9 7 8 2 6 1 7 14 16 20 17 12 13 15 20 29 28 30 33 36 34 35 31 27 26 23 18 15 20 21 25 23 26 23
10 5 6 8 7 7 5 2 5 3 4 1 9 8 4 5 13 5 11 12 11 16 15 16 24 24 31 31 33 34 34 34 31 27 26 24 21 20 19 27 29 29 27 24
7 8 7 6 4 5 3 7 3 5 4 5 6 5 8 9 12 12 14 14 11 8 13 13 11 16 23 30 34 33 29 33 34 30 29 28 23 22 23 22 29 30 29 28
3 9 5 3 9 9 6 9 6 4 4 4 7 4 6 8 9 13 5 6 8 8 10 15 16 22 23 26 36 35 33 35 33 33 33 34 30 24 27 20 19 34 31 32
6 6 4 12 7 11 5 3 7 7 3 3 3 4 7 4 3 8 8 6 8 12 13 16 17 23 26 26 33 36 35 35 34 35 37 36 37 29 27 24 18 21 31 33
6 4 4 5 4 1 9 6 2 3 4 5 4 3 5 5 8 6 5 9 8 7 10 10 14 21 27 32 33 33 38 40 35 39 37 39 38 36 33 26 24 21 22 24
7 5 11 3 5 9 0 3 3 5 5 6 4 6 6 12 9 11 9 9 3 7 12 12 12 21 29 28 31 35 36 34 32 36 35 33 37 39 37 34 30 28 23 24
12 7 7 11 5 7 7 10 7 5 5 2 5 5 6 13 17 13 8 6 7 7 7 7 10 18 24 28 26 31 38 36 40 38 36 36 36 37 38 39 35 30 28 26
8 2 1 8 7 5 4 2 4 5 3 2 4 5 5 5 4 7 6 8 7 9 10 10 8 7 14 19 25 28 29 29 41 42 34 33 36 36 38 38 39 37 31 27
3 5 7 8 8 4 3 5 6 7 4 3 4 5 9 9 10 8 9 12 11 8 10 8 7 10 14 10 6 18 28 32 32 32 32 35 38 38 36 37 37 37 38 31
1 7 6 7 7 5 5 4 7 4 6 5 4 7 12 18 17 18 15 13 12 10 8 7 7 7 12 8 4 3 9 15 31 30 34 34 34 27 20 27 30 29 28 33
5 2 3 5 7 8 5 1 3 7 8 6 3 2 2 4 12 13 16 15 13 10 10 9 7 7 8 6 4 2 4 8 9 29 33 34 32 28 29 22 24 24 18 19
3 3 2 3 2 4 1 8 6 5 5 6 4 7 4 6 13 17 15 16 14 12 12 10 8 8 8 7 4 4 1 3 6 8 9 24 30 30 28 20 19 22 23 18
1 2 2 3 3 3 8 6 7 7 4 6 3 5 9 18 20 16 13 14 12 12 11 9 11 14 13 10 8 7 8 10 11 9 11 16 20 21 22 24 23 27 28 28
5 4 1 3 3 5 1 1 6 7 7 6 6 4 2 8 5 1 10 15 17 14 14 17 24 23 19 15 13 13 14 14 13 12 9 8 12 15 18 19 19 23 14 12
4 4 4 2 2 3 7 4 6 5 3 5 1 2 1 11 10 11 11 15 13 17 21 22 27 25 21 17 16 17 15 15 15 13 11 7 7 8 16 20 9 13 5 4
3 2 4 4 3 6 8 8 2 7 7 7 9 9 7 13 8 8 9 8 17 22 23 25 27 26 22 18 15 13 12 10 10 10 9 8 7 4 6 11 13 11 8 6
4 2 4 2 4 6 12 6 1 7 8 7 6 6 12 8 9 15 12 15 16 16 23 24 23 22 20 18 13 10 10 12 12 10 9 7 5 5 4 3 5 7 6 4
2 4 2 4 3 1 1 4 4 10 7 12 6 11 14 15 12 17 15 16 15 21 20 23 24 21 16 13 13 19 16 17 15 11 9 7 6 5 7 7 9 11 13 13
2 3 1 4 3 2 6 2 4 9 12 15 13 6 17 17 17 16 14 13 12 17 18 22 24 21 15 13 15 17 18 14 14 13 9 8 8 11 9 9 8 10 10 12
4 1 2 4 7 5 2 1 3 9 14 16 17 10 16 21 16 18 14 10 11 16 21 24 23 21 18 16 14 13 12 8 9 11 14 12 11 10 11 11 10 8 8 8
5 6 4 5 6 4 7 7 4 6 9 13 11 15 8 19 17 15 13 13 16 18 22 23 24 23 19 16 14 12 12 11 10 13 16 15 15 13 10 11 13 11 10 8
Wind_Direction
279 96 232 239 206 217 237 149 177 99 147 138 155 91 149 167 168 268 285 288 245 204 192 164 177 173 170 178 184 184 188 190 190 189 204 223 223 215 223 206 200 188 197 193
354 240 240 247 253 250 174 135 162 111 159 104 92 273 236 204 171 177 243 299 270 226 164 167 170 172 175 177 185 187 191 190 191 187 200 200 183 213 211 202 192 198 202 207
198 241 207 224 253 220 223 168 177 117 136 131 159 292 280 239 148 160 224 215 233 223 190 163 169 173 178 183 186 188 189 191 189 191 192 205 205 200 184 192 201 208 203 193
224 256 253 270 251 164 183 209 176 153 142 204 204 231 273 225 263 200 195 221 225 196 178 178 171 177 184 187 188 189 191 189 193 193 200 205 200 178 193 188 207 198 205 197
248 258 222 237 233 157 219 194 197 183 188 109 215 308 265 98 240 225 214 210 205 211 185 179 175 181 183 186 189 191 195 192 194 201 206 205 217 205 190 200 198 208 203 207
233 245 194 224 251 185 220 38 58 62 145 11 198 197 288 214 240 181 218 212 198 194 188 189 179 176 182 188 188 192 190 198 199 204 209 212 219 216 197 206 211 206 204 210
325 288 286 194 259 3 116 66 357 2 16 223 239 137 224 224 246 226 203 205 189 174 193 176 168 173 180 184 184 190 194 203 204 206 214 217 224 225 214 203 214 217 212 213
211 316 176 240 187 194 184 152 152 190 186 215 238 180 256 202 211 225 169 209 190 167 163 178 180 182 187 189 189 193 202 208 210 214 220 220 223 226 223 211 218 221 220 221
173 259 266 236 170 145 218 167 184 105 0 72 255 321 334 7 190 220 153 177 183 167 183 191 175 190 195 193 202 203 208 211 218 217 221 221 224 225 224 221 214 219 225 223
222 291 237 324 77 115 154 174 77 16 138 226 280 252 225 244 238 248 242 199 186 177 193 198 188 181 202 210 212 213 215 221 223 215 220 221 225 222 227 226 223 220 219 228
174 152 276 140 168 200 151 214 86 132 145 171 192 256 213 208 173 196 218 256 209 206 207 212 201 197 205 206 209 215 214 221 211 215 218 220 223 225 227 228 229 226 224 228
200 168 218 228 232 210 187 200 148 128 258 178 158 275 188 194 192 184 189 206 251 208 169 185 177 204 196 200 205 209 214 216 217 220 221 222 223 226 229 228 228 227 222 223
167 218 146 341 349 11 171 149 115 127 103 240 167 232 176 191 171 194 179 189 184 166 129 119 104 137 189 198 212 215 217 217 223 221 219 219 222 219 224 229 230 228 228 223
108 131 162 194 206 173 170 167 127 111 97 259 165 316 178 190 213 176 146 154 169 134 128 119 102 107 107 126 150 219 223 221 224 219 215 218 218 219 219 229 230 230 229 226
79 185 169 197 220 178 209 208 145 131 168 135 252 175 220 181 182 170 158 150 132 142 131 124 121 121 110 105 112 187 213 224 231 219 222 223 231 221 246 245 232 231 229 235
346 279 188 199 180 191 220 204 132 147 133 151 147 202 50 336 144 150 157 151 156 155 137 127 107 84 86 80 63 108 220 227 225 224 225 227 230 227 217 218 216 230 229 227
41 26 48 268 56 115 42 194 194 204 164 159 126 211 178 173 189 169 170 165 160 158 150 140 136 135 125 119 93 71 106 150 187 194 171 216 213 208 216 217 224 213 235 251
346 48 92 217 45 274 236 237 203 194 120 145 158 259 165 193 196 173 167 157 159 162 149 142 136 143 141 141 138 111 96 96 106 147 187 210 206 210 213 213 217 223 228 248
157 127 21 140 178 278 325 172 149 160 235 183 204 306 120 124 112 82 173 165 171 170 161 156 154 152 142 131 124 112 99 97 100 103 112 162 191 195 205 199 207 213 219 272
94 121 138 138 123 212 238 238 163 120 261 161 233 328 277 135 171 206 186 167 166 153 153 148 151 150 145 141 131 116 110 102 99 95 94 136 171 176 203 190 181 206 257 31
350 339 193 175 186 278 340 275 236 124 231 170 164 210 168 186 202 160 137 147 149 149 142 148 153 152 153 156 151 143 138 132 125 110 100 101 111 141 199 221 244 217 144 104
194 183 223 177 160 236 353 349 161 321 305 204 165 135 167 167 131 139 139 138 140 140 145 153 154 156 165 169 167 155 132 140 147 132 125 123 97 82 111 113 176 207 211 184
149 183 224 182 193 169 69 144 281 12 16 318 292 154 144 136 142 141 141 142 146 151 152 153 147 145 147 156 164 148 145 143 135 126 124 134 135 127 120 124 119 122 139 146
264 192 236 360 89 183 269 183 356 346 347 325 339 179 140 138 139 137 136 141 141 145 146 151 141 136 128 129 136 133 141 137 129 126 138 139 131 121 120 117 115 129 132 139
212 62 196 266 291 302 212 168 282 326 335 346 348 304 156 144 151 142 144 144 145 147 148 151 144 142 139 137 136 137 142 143 149 140 142 146 141 134 123 119 115 115 125 130
184 200 173 230 241 189 261 303 289 282 334 333 350 324 285 147 147 146 144 149 148 145 149 143 150 151 150 149 148 149 153 156 171 162 152 154 150 147 135 122 114 118 112 109
Height
769 789 801 790 787 782 784 797 800 796 791 798 800 803 800 798 803 807 806 795 795 794 794 797 801 803 809 812 814 818 819 822 826 829 832 834 836 838 839 838 839 841 843 844
784 798 773 769 772 775 784 794 797 794 791 795 806 810 792 786 788 792 801 801 795 791 793 795 796 800 803 806 810 815 817 820 823 828 830 832 834 837 839 839 841 842 842 841
791 772 757 766 772 781 786 791 792 792 796 795 802 810 803 785 784 785 787 792 789 790 794 793 795 797 801 804 806 810 814 818 820 826 830 833 836 835 838 841 842 842 844 844
779 754 760 764 772 772 796 763 768 783 796 819 795 826 812 797 793 787 780 774 782 782 786 791 790 794 797 800 804 807 809 814 819 823 828 831 834 835 835 839 841 843 844 845
774 759 763 769 761 755 771 749 761 770 787 801 812 825 802 791 794 785 776 774 776 778 777 783 784 787 792 796 800 803 808 812 816 820 824 828 831 834 835 837 840 841 843 845
760 739 745 748 738 739 736 749 767 774 791 815 799 808 808 802 772 775 770 769 769 773 774 778 781 783 788 792 795 799 805 809 812 817 820 823 827 830 833 835 837 840 841 842
764 753 739 733 747 743 744 785 823 822 825 822 791 794 792 766 762 759 764 761 764 766 769 777 781 784 785 787 791 796 800 805 809 812 817 819 823 826 829 832 835 838 838 840
788 789 744 727 742 757 761 781 820 823 833 810 783 803 784 750 744 746 754 756 759 766 767 771 775 778 781 784 787 791 795 798 803 807 811 815 820 823 826 828 831 833 834 835
788 776 729 726 723 735 757 778 765 808 808 818 799 780 760 746 750 747 754 758 759 761 762 764 773 775 777 780 784 787 790 793 798 801 805 809 814 817 821 825 827 829 830 832
749 773 732 721 718 725 743 743 780 806 824 825 806 791 792 767 762 751 750 756 757 758 761 763 767 770 772 773 779 784 787 789 791 797 801 803 809 813 817 821 824 826 827 830
735 755 747 730 742 749 751 759 765 778 796 815 820 802 756 752 752 748 750 747 755 755 757 757 761 766 766 769 775 777 783 785 790 794 796 799 803 808 813 816 819 822 824 826
725 752 767 749 719 716 728 743 760 794 784 785 796 786 736 740 735 737 744 747 749 750 749 751 755 759 761 765 770 774 775 779 784 789 792 795 798 803 807 809 811 816 817 819
717 751 772 761 743 724 730 732 743 762 774 777 783 779 742 738 740 740 742 745 751 750 752 753 756 756 758 764 767 769 770 774 777 782 787 791 793 795 799 803 806 809 813 815
701 740 751 771 755 738 740 732 741 758 786 778 777 767 756 745 744 742 742 743 750 746 749 754 758 762 763 765 766 766 768 770 771 779 783 783 785 786 790 796 800 804 807 811
714 735 735 735 729 726 727 729 735 747 759 771 752 756 750 731 731 733 737 741 743 748 750 753 756 761 763 764 765 765 764 765 768 772 775 778 781 783 786 793 794 798 802 805
721 730 724 727 723 724 728 720 721 731 746 752 745 745 735 730 728 734 734 738 743 746 747 750 752 755 759 760 761 762 762 764 763 764 768 774 777 778 784 788 787 794 794 798
733 737 744 748 729 732 750 730 722 721 729 735 746 736 727 738 733 728 731 730 736 742 744 747 752 757 759 760 761 762 763 762 763 763 765 767 770 773 777 781 783 786 786 790
730 738 749 754 738 765 733 707 705 715 716 722 721 719 720 717 714 717 721 730 735 738 743 748 753 758 761 763 764 764 764 763 762 762 762 763 766 769 771 775 772 773 785 786
722 738 748 755 765 743 716 710 716 720 725 708 715 706 707 712 725 726 722 721 727 732 738 744 750 758 761 762 764 764 763 764 763 764 764 764 765 767 768 769 772 779 784 785
721 728 741 758 755 761 732 703 698 703 740 702 697 698 707 714 745 725 717 717 724 730 737 745 752 757 760 761 763 764 764 765 764 765 766 766 767 768 770 771 774 779 782 779
741 740 743 754 757 743 727 704 698 739 739 696 697 702 705 713 705 704 714 719 722 729 737 746 751 753 757 761 762 763 764 765 766 766 767 768 769 770 770 773 774 777 777 775
744 749 750 744 749 756 722 709 725 728 703 690 685 690 695 703 702 705 713 719 724 730 738 744 749 753 757 760 761 762 764 766 767 767 768 768 768 769 769 770 772 773 775 776
746 747 750 746 744 731 722 729 731 724 723 711 689 679 685 695 701 704 713 720 725 730 736 743 747 753 757 759 760 761 763 766 767 767 769 770 770 771 773 773 774 776 776 777
743 741 745 743 732 731 724 721 722 723 717 711 695 685 682 692 697 705 712 720 726 732 737 742 748 752 756 758 760 761 763 766 768 768 769 770 771 772 773 774 775 776 777 778
741 736 742 744 732 723 720 717 721 717 711 703 698 697 684 688 699 701 713 719 725 730 736 741 747 752 756 758 761 763 764 766 768 769 770 771 772 772 773 774 775 777 778 779
735 736 745 744 728 727 724 716 715 716 713 707 710 708 701 687 695 704 713 718 724 729 734 739 746 751 756 758 761 763 765 766 769 769 771 772 773 773 774 775 777 778 780 781